Hurghada, Egypt

1:37 PM EET on February 24, 2017 (GMT +0200)
Hurghada International

Weather History for HEGN - October, 2012

Change the Weather History Date:

Monday, October 1, 2012

  Actual Average Record
Temperature  
Mean Temperature 86 °F -  
Max Temperature 93 °F 85 °F 99 °F (2015)
Min Temperature 80 °F 71 °F 70 °F (2013)
Cooling Degree Days 22    
Growing Degree Days 36 (Base 50)    
Moisture  
Dew Point 68 °F    
Average Humidity 52    
Maximum Humidity 66    
Minimum Humidity 43    
Precipitation  
Precipitation 0.00 in - - ()
Sea Level Pressure  
Sea Level Pressure 29.89 in    
Wind  
Wind Speed 12 mph ()    
Max Wind Speed 18 mph    
Max Gust Speed -    
Visibility 6.2 miles    
Events      
Averages and records for this station are not official NWS values.
T = Trace of Precipitation, MM = Missing Value Source: Averaged Metar Reports

Daily Weather History Graph

Daily Weather History Graph

Search for Another Location

Airport or City:

Trip Planner

Search our weather history database for the weather conditions in past years. The results will help you decide how hot, cold, wet, or windy it might be!

Date:

Astronomy

Oct. 01, 2012 Rise Set
Actual Time 5:37 AM EET 5:31 PM EET
Civil Twilight 5:14 AM EET 5:54 PM EET
Nautical Twilight 4:47 AM EET 6:21 PM EET
Astronomical Twilight 4:20 AM EET 6:48 PM EET
Moon 6:09 PM EET (10/1) 6:36 AM EET (10/1)
Length of Visible Light 12h 39m
Length of Day
11h 53m
Full, 98% of the Moon is Illuminated
Oct 1
Full
Oct 8
Last Quarter
Oct 15
New
Oct 22
First Quarter
Oct 29
Full

Hourly Weather History & Observations

Time (EET) Temp. Heat Index Dew Point Humidity Pressure Visibility Wind Dir Wind Speed Gust Speed Precip Events Conditions
12:00 AM 84.2 °F 86.6 °F 66.2 °F 55% 29.92 in - NW 10.4 mph - N/A   Clear
1:00 AM 84.2 °F 85.0 °F 62.6 °F 48% 29.89 in - North 8.1 mph - N/A   Clear
2:00 AM 84 °F - 68 °F 50% 29.89 in 6 mi NNW 18.4 mph - -  
2:00 AM 84.2 °F 87.3 °F 68.0 °F 58% 29.89 in - NNW 18.4 mph - N/A   Clear
3:00 AM 80.6 °F 82.7 °F 66.2 °F 61% 29.86 in - NW 11.5 mph - N/A   Clear
4:00 AM 82.4 °F 85.4 °F 68.0 °F 62% 29.86 in - WNW 12.7 mph - N/A   Clear
5:00 AM 82.4 °F 85.4 °F 68.0 °F 62% 29.89 in - NW 12.7 mph - N/A   Clear
6:00 AM 82.4 °F 86.3 °F 69.8 °F 66% 29.92 in 6.2 mi North 15.0 mph - N/A   Scattered Clouds
7:00 AM 82.4 °F 85.4 °F 68.0 °F 62% 29.92 in 6.2 mi North 13.8 mph - N/A   Scattered Clouds
8:00 AM 86 °F - 68 °F 46% 29.94 in 6 mi NNW 15.0 mph - -   Partly Cloudy
8:00 AM 86.0 °F 89.4 °F 68.0 °F 55% 29.92 in 6.2 mi NNW 15.0 mph - N/A   Scattered Clouds
9:00 AM 89.6 °F 92.2 °F 66.2 °F 46% 29.92 in - NNW 11.5 mph - N/A   Clear
10:00 AM 91.4 °F 95.4 °F 68.0 °F 46% 29.92 in - North 12.7 mph - N/A   Clear
11:00 AM 93.2 °F 97.7 °F 68.0 °F 44% 29.92 in 6.2 mi North 18.4 mph - N/A   Scattered Clouds
12:00 PM 91.4 °F 98.4 °F 71.6 °F 52% 29.89 in 6.2 mi North 17.3 mph - N/A   Scattered Clouds
1:00 PM 91.4 °F 100.1 °F 73.4 °F 55% 29.86 in 6.2 mi North 18.4 mph - N/A   Scattered Clouds
2:00 PM 92 °F - 73 °F 44% 29.87 in 6 mi North 17.3 mph - -   Scattered Clouds
2:00 PM 93.2 °F 102.4 °F 73.4 °F 52% 29.86 in 6.2 mi North 17.3 mph - N/A   Scattered Clouds
3:00 PM 93.2 °F 98.8 °F 69.8 °F 46% 29.83 in 6.2 mi North 16.1 mph - N/A   Scattered Clouds
4:00 PM 93.2 °F 98.8 °F 69.8 °F 46% 29.83 in 6.2 mi North 13.8 mph - N/A   Scattered Clouds
5:00 PM 91.4 °F 96.8 °F 69.8 °F 49% 29.86 in 6.2 mi North 13.8 mph - N/A   Scattered Clouds
6:00 PM 87.8 °F 95.6 °F 73.4 °F 62% 29.86 in 6.2 mi North 11.5 mph - N/A   Scattered Clouds
7:00 PM 87.8 °F 92.6 °F 69.8 °F 55% 29.89 in 6.2 mi North 11.5 mph - N/A   Scattered Clouds
8:00 PM 88 °F - 68 °F 43% 29.90 in 6 mi North 12.7 mph - -   Scattered Clouds
8:00 PM 87.8 °F 91.4 °F 68.0 °F 52% 29.89 in 6.2 mi North 12.7 mph - N/A   Scattered Clouds
9:00 PM 89.6 °F 92.2 °F 66.2 °F 46% 29.89 in 6.2 mi North 13.8 mph - N/A   Scattered Clouds
10:00 PM 87.8 °F 89.4 °F 64.4 °F 46% 29.92 in 6.2 mi NNW 9.2 mph - N/A   Scattered Clouds
11:00 PM 86.0 °F 86.6 °F 62.6 °F 45% 29.92 in 6.2 mi NW 9.2 mph - N/A   Scattered Clouds